Wellsville, NY

11:45 AM EDT on April 21, 2018 (GMT -0400)
Wellsville Municipal-Tarantine

Weather History for KELZ - July, 2014

Change the Weather History Date:

Friday, July 18, 2014

  Actual Average (KDSV) Record (KDSV)
Temperature  
Mean Temperature 59 °F -  
Max Temperature 73 °F 83 °F 97 °F (1955)
Min Temperature 46 °F 58 °F 44 °F (1971)
Degree Days  
Heating Degree Days 6    
Growing Degree Days 9 (Base 50)    
Moisture  
Dew Point 48 °F    
Average Humidity 72    
Maximum Humidity 93    
Minimum Humidity 41    
Precipitation  
Precipitation 0.00 in - - ()
Sea Level Pressure  
Sea Level Pressure 30.27 in    
Wind  
Wind Speed 1 mph (NW)    
Max Wind Speed 7 mph    
Max Gust Speed -    
Visibility 8 miles    
Events Fog    
Averages and records for this station are not official NWS values.
T = Trace of Precipitation, MM = Missing Value Source: NWS Daily Summary

Daily Weather History Graph

Daily Weather History Graph

Search for Another Location

Airport or City:

Astronomy

Jul. 18, 2014 Rise Set
Actual Time 5:51 AM EDT 8:44 PM EDT
Civil Twilight 5:18 AM EDT 9:17 PM EDT
Nautical Twilight 4:36 AM EDT 9:58 PM EDT
Astronomical Twilight 3:48 AM EDT 10:47 PM EDT
Moon No Moon Rise 1:14 PM EDT (7/18)
Length of Visible Light 15h 58m
Length of Day
14h 52m
Waning Gibbous, 55% of the Moon is Illuminated
Jul 18
Waning Gibbous
Jul 18
Last Quarter
Jul 26
New
Aug 3
First Quarter
Aug 10
Full

Hourly Weather History & Observations

Time (EDT) Temp. Dew Point Humidity Pressure Visibility Wind Dir Wind Speed Gust Speed Precip Events Conditions
12:56 AM 53.1 °F 46.0 °F 77% 30.21 in 10.0 mi NW 3.5 mph - N/A   Clear
1:56 AM 52.0 °F 48.0 °F 86% 30.22 in 10.0 mi Calm Calm - N/A   Clear
2:56 AM 52.0 °F 46.9 °F 83% 30.23 in 10.0 mi Calm Calm - N/A   Clear
3:56 AM 50.0 °F 46.9 °F 89% 30.24 in 10.0 mi Calm Calm - N/A   Clear
4:44 AM 48.0 °F 45.0 °F 89% 30.24 in 2.0 mi Calm Calm - N/A   Partly Cloudy
4:53 AM 48.2 °F 44.6 °F 87% 30.24 in 0.5 mi Calm Calm - N/A Fog Fog
4:56 AM 48.0 °F 45.0 °F 89% 30.25 in 0.5 mi Calm Calm - N/A Fog Fog
5:11 AM 48.0 °F 46.0 °F 93% 30.25 in 1.0 mi Calm Calm - N/A   Mist
5:18 AM 48.0 °F 45.0 °F 89% 30.25 in 2.0 mi Calm Calm - N/A   Clear
5:27 AM 48.0 °F 46.0 °F 93% 30.25 in 10.0 mi Calm Calm - N/A   Clear
5:56 AM 46.9 °F 45.0 °F 93% 30.27 in 1.2 mi Calm Calm - N/A   Clear
6:14 AM 46.0 °F 44.1 °F 93% 30.27 in 0.5 mi Calm Calm - N/A Fog Fog
6:22 AM 48.0 °F 45.0 °F 89% 30.27 in 3.0 mi Calm Calm - N/A   Clear
6:56 AM 48.9 °F 46.9 °F 93% 30.28 in 10.0 mi Calm Calm - N/A   Clear
7:56 AM 51.1 °F 48.0 °F 89% 30.30 in 10.0 mi Calm Calm - N/A   Clear
8:56 AM 59.0 °F 52.0 °F 78% 30.31 in 10.0 mi Calm Calm - N/A   Clear
9:56 AM 64.9 °F 50.0 °F 58% 30.30 in 10.0 mi Calm Calm - N/A   Clear
10:56 AM 66.0 °F 48.0 °F 52% 30.30 in 10.0 mi WSW 3.5 mph - N/A   Mostly Cloudy
11:56 AM 66.9 °F 50.0 °F 54% 30.30 in 10.0 mi North - - N/A   Mostly Cloudy
12:56 PM 68.0 °F 50.0 °F 52% 30.30 in 10.0 mi NW 6.9 mph - N/A   Mostly Cloudy
1:56 PM 70.0 °F 48.0 °F 46% 30.28 in 10.0 mi Variable 3.5 mph - N/A   Clear
2:56 PM 71.1 °F 46.0 °F 41% 30.28 in 10.0 mi Calm Calm - N/A   Clear
3:56 PM 71.1 °F 48.0 °F 44% 30.27 in 10.0 mi Calm Calm - N/A   Clear
4:56 PM 72.0 °F 50.0 °F 46% 30.27 in 10.0 mi Variable 5.8 mph - N/A   Mostly Cloudy
5:56 PM 71.1 °F 48.9 °F 45% 30.27 in 10.0 mi Calm Calm - N/A   Clear
6:56 PM 69.1 °F 54.0 °F 58% 30.27 in 10.0 mi Calm Calm - N/A   Clear
7:56 PM 66.9 °F 48.0 °F 51% 30.27 in 10.0 mi Calm Calm - N/A   Clear
8:56 PM 64.0 °F 53.1 °F 67% 30.26 in 10.0 mi ENE 3.5 mph - N/A   Clear
9:56 PM 61.0 °F 50.0 °F 67% 30.26 in 10.0 mi Calm Calm - N/A   Clear
10:56 PM 60.1 °F 52.0 °F 75% 30.26 in 10.0 mi Calm Calm - N/A   Clear
11:56 PM 57.9 °F 52.0 °F 81% 30.27 in 10.0 mi Calm Calm - N/A   Clear